Regional Weather Roundup
Issued by NWS

Home | Current Version | Previous Version | Text Only | Print | Product List | Glossary Off
Versions: 1 2 3 4 5 6 7 8 9 10 11 12 13 14 15 16 17 18 19 20 21 22 23 24 25 26 27 28 29 30 31 32 33 34 35 36 37 38 39 40 41 42 43 44 45 46 47 48 49 50

000
ASUS44 KMEG 250310
RWRTN
TENNESSEE HOURLY STATE WEATHER ROUNDUP
NATIONAL WEATHER SERVICE MEMPHIS TN
1000 PM CDT FRI MAR 24 2017

TNZ002-004-019-021-049-052-054-088>092-250400-
WEST TENNESSEE

CITY           SKY/WX    TMP DP  RH WIND       PRES   REMARKS
MEMPHIS INTL   MOCLDY    72  59  63 SE18G30   29.99F
NWS MEMPHIS      N/A     71 N/A N/A MISG        N/A
JACKSON        CLOUDY    70  57  63 S9G21     30.06S
DYERSBURG      CLOUDY    68  57  68 SE10      30.02F
SOMERVILLE     PTCLDY    70  57  64 SE10G21   30.03S
BOLIVAR        PTCLDY    70  57  64 SE15      30.06R
PARIS          CLEAR     66  54  63 S13       30.08S
HUNTINGDON     MOCLDY    70  55  60 S12       30.07S
SAVANNAH       MOCLDY    70  55  60 S9G17     30.10R
$$

TNZ008-025-027-028-033-062-065-066-250400-
NORTH MIDDLE TENNESSEE

CITY           SKY/WX    TMP DP  RH WIND       PRES   REMARKS
NASHVILLE      CLOUDY    68  52  56 S12       30.16R
PORTLAND       MOCLDY    66  52  59 S12       30.15S
CLARKSVILLE    CLOUDY    69  52  54 S8G24     30.10R
SMYRNA         MOCLDY    67  53  61 S9        30.16S
COOKEVILLE     MOCLDY    64  50  59 S8G16     30.20F
GALLATIN       MOCLDY    68  52  56 SE9       30.18S
CROSSVILLE     CLOUDY    62  45  53 S8        30.25F
$$

TNZ061-075-076-078-094-096-097-250400-
SOUTH MIDDLE TENNESSEE

CITY           SKY/WX    TMP DP  RH WIND       PRES   REMARKS
FAYETTEVILLE   MOCLDY    64  52  63 S8        30.19R
TULLAHOMA      CLEAR     64  48  55 SE5       30.21R
WINCHESTER     CLEAR     66  52  59 S12       30.20S
MCMINNVILLE    CLEAR     64  50  59 SE7       30.20F
COLUMBIA       CLEAR     66  54  63 S8        30.12S
SHELBYVILLE    CLEAR     68  54  60 SE8       30.18S
$$

TNZ017-018-042-046-047-250400-
NORTHEAST TENNESSEE

CITY           SKY/WX    TMP DP  RH WIND       PRES   REMARKS
TRI CITIES     PTCLDY    61  47  59 S3        30.30R
ELIZABETHTON   CLOUDY    55  48  76 CALM      30.31R
$$

TNZ012-013-036-069-073-074-250400-
CENTRAL EAST TENNESSEE

CITY           SKY/WX    TMP DP  RH WIND       PRES   REMARKS
KNOXVILLE      MOCLDY    63  45  51 S8        30.26F
OAK RIDGE      PTCLDY    63  46  54 S3        30.27F
DOWNTOWN KNOXV PTCLDY    66  46  48 S5        30.27F
GATLINBURG     CLEAR     61  45  55 SW3       30.28S
MORRISTOWN     MOCLDY    63  48  59 SW5       30.28S
JACKSBORO      PTCLDY    63  48  59 S8        30.29S
$$

TNZ083-085-099-250400-
SOUTHEAST TENNESSEE

CITY           SKY/WX    TMP DP  RH WIND       PRES   REMARKS
CHATTANOOGA    MOCLDY    68  48  48 SE8       30.23F
$$

SKY/WX REPORTED AS FAIR MEANS FEW OR NO CLOUDS BELOW
12 THOUSAND FEET.




USA.gov is the U.S. government's official web portal to all federal, state and local government web resources and services.